When you browse on this site, cookies collect data to enhance your experience and personalize the content and advertising you see.
Visit our Privacy Policy to learn more. By continuing to use the site, you agree to this use of cookies and data.
  • In Hungary
  • List of Countries
  • For 7 days
  • Water Temperature
  • Satellite Maps
  • Weather Map
  • News
  • Weather Widgets
  • user-avatar
    Login

    Hourly Weather Kharabali

    Today, 22 January, Tuesday

    Time Temperature Precipitation Wind Pressure Humidity
    00:00 -3°C° 0 mm 6 mps 762 mmHg 94%
    01:00 -2°C° 0.1 mm 6 mps 761 mmHg 94%
    02:00 -2°C° 0.1 mm 6 mps 761 mmHg 95%
    03:00 -1°C° 0.1 mm 5 mps 761 mmHg 95%
    04:00 -1°C° 0.4 mm 5 mps 761 mmHg 95%
    05:00 -1°C° 0.4 mm 4 mps 761 mmHg 95%
    06:00 -1°C° 0.4 mm 4 mps 761 mmHg 95%
    07:00 -2°C° 0.3 mm 5 mps 761 mmHg 95%
    08:00 -4°C° 0.3 mm 6 mps 762 mmHg 94%
    09:00 -6°C° 0.3 mm 7 mps 762 mmHg 93%
    10:00 -6°C° 0.1 mm 7 mps 763 mmHg 90%
    11:00 -7°C° 0.1 mm 7 mps 763 mmHg 87%
    12:00 -8°C° 0.1 mm 6 mps 764 mmHg 84%
    13:00 -8°C° 0 mm 6 mps 764 mmHg 84%
    14:00 -8°C° 0 mm 6 mps 765 mmHg 83%
    15:00 -8°C° 0 mm 5 mps 765 mmHg 83%
    16:00 -10°C° 0 mm 5 mps 766 mmHg 84%
    17:00 -10°C° 0 mm 4 mps 766 mmHg 86%
    18:00 -11°C° 0 mm 4 mps 767 mmHg 88%
    19:00 -12°C° 0 mm 4 mps 768 mmHg 88%
    20:00 -14°C° 0 mm 4 mps 768 mmHg 88%
    21:00 -13°C° 0 mm 3 mps 768 mmHg 88%
    22:00 -14°C° 0 mm 3 mps 769 mmHg 87%
    23:00 -14°C° 0 mm 3 mps 769 mmHg 85%

    Tomorrow, 23 January, Wednesday

    Time Temperature Precipitation Wind Pressure Humidity
    00:00 -13°C° 0 mm 2 mps 769 mmHg 84%
    01:00 -13°C° 0 mm 2 mps 769 mmHg 83%
    02:00 -14°C° 0 mm 2 mps 770 mmHg 82%
    03:00 -14°C° 0 mm 2 mps 770 mmHg 81%
    04:00 -14°C° 0 mm 2 mps 770 mmHg 82%
    05:00 -14°C° 0 mm 2 mps 770 mmHg 83%
    06:00 -14°C° 0 mm 2 mps 770 mmHg 83%
    07:00 -14°C° 0 mm 2 mps 771 mmHg 83%
    08:00 -14°C° 0 mm 2 mps 771 mmHg 84%
    09:00 -13°C° 0 mm 2 mps 771 mmHg 84%
    10:00 -12°C° 0 mm 2 mps 772 mmHg 82%
    11:00 -10°C° 0 mm 2 mps 772 mmHg 81%
    12:00 -9°C° 0 mm 2 mps 772 mmHg 79%
    13:00 -9°C° 0 mm 2 mps 772 mmHg 81%
    14:00 -10°C° 0 mm 3 mps 771 mmHg 82%
    15:00 -9°C° 0 mm 3 mps 771 mmHg 84%
    16:00 -10°C° 0 mm 3 mps 772 mmHg 86%
    17:00 -12°C° 0 mm 3 mps 772 mmHg 88%
    18:00 -14°C° 0 mm 4 mps 772 mmHg 89%
    19:00 -14°C° 0 mm 4 mps 772 mmHg 89%
    20:00 -14°C° 0 mm 4 mps 772 mmHg 90%
    21:00 -14°C° 0 mm 4 mps 772 mmHg 90%
    22:00 -14°C° 0 mm 4 mps 772 mmHg 89%
    23:00 -14°C° 0 mm 4 mps 772 mmHg 88%

    Day after tomorrow, 24 January, Thursday

    Time Temperature Precipitation Wind Pressure Humidity
    00:00 -13°C° 0 mm 5 mps 772 mmHg 87%
    01:00 -13°C° 0 mm 5 mps 772 mmHg 87%
    02:00 -13°C° 0 mm 5 mps 772 mmHg 86%
    03:00 -13°C° 0 mm 5 mps 772 mmHg 85%
    04:00 -13°C° 0 mm 5 mps 771 mmHg 85%
    05:00 -13°C° 0 mm 5 mps 771 mmHg 85%
    06:00 -12°C° 0 mm 6 mps 771 mmHg 85%
    07:00 -12°C° 0 mm 6 mps 771 mmHg 84%
    08:00 -12°C° 0 mm 7 mps 771 mmHg 82%
    09:00 -11°C° 0 mm 7 mps 770 mmHg 81%
    10:00 -9°C° 0 mm 7 mps 770 mmHg 78%
    11:00 -8°C° 0 mm 7 mps 769 mmHg 75%
    12:00 -7°C° 0 mm 8 mps 769 mmHg 73%
    13:00 -7°C° 0 mm 7 mps 768 mmHg 72%
    14:00 -5°C° 0 mm 6 mps 768 mmHg 72%
    15:00 -5°C° 0 mm 6 mps 767 mmHg 72%
    16:00 -5°C° 0 mm 5 mps 767 mmHg 74%
    17:00 -6°C° 0 mm 5 mps 767 mmHg 76%
    18:00 -7°C° 0 mm 5 mps 767 mmHg 78%
    19:00 -6°C° 0 mm 5 mps 767 mmHg 79%
    20:00 -6°C° 0 mm 5 mps 766 mmHg 79%
    21:00 -5°C° 0 mm 5 mps 766 mmHg 80%
    22:00 -5°C° 0 mm 5 mps 766 mmHg 81%
    23:00 -5°C° 0 mm 5 mps 766 mmHg 81%

    25 January, Friday

    Time Temperature Precipitation Wind Pressure Humidity
    00:00 -5°C° 0 mm 5 mps 765 mmHg 82%
    01:00 -4°C° 0 mm 5 mps 765 mmHg 83%
    02:00 -4°C° 0 mm 5 mps 765 mmHg 84%
    03:00 -4°C° 0 mm 5 mps 765 mmHg 85%
    04:00 -4°C° 0 mm 5 mps 764 mmHg 87%
    05:00 -4°C° 0 mm 5 mps 764 mmHg 88%
    06:00 -4°C° 0 mm 5 mps 764 mmHg 89%
    07:00 -3°C° 0 mm 4 mps 764 mmHg 90%
    08:00 -2°C° 0 mm 4 mps 764 mmHg 90%
    09:00 -2°C° 0 mm 4 mps 764 mmHg 91%
    10:00 -2°C° 0 mm 4 mps 764 mmHg 93%
    11:00 -2°C° 0 mm 4 mps 764 mmHg 95%
    12:00 -1°C° 0 mm 4 mps 764 mmHg 97%
    13:00 -1°C° 0 mm 4 mps 764 mmHg 97%
    14:00 -1°C° 0 mm 4 mps 763 mmHg 97%
    15:00 -1°C° 0 mm 4 mps 763 mmHg 97%
    16:00 -2°C° 0 mm 4 mps 763 mmHg 96%
    17:00 -3°C° 0 mm 4 mps 763 mmHg 95%
    18:00 -4°C° 0 mm 3 mps 763 mmHg 94%
    19:00 -4°C° 0 mm 3 mps 763 mmHg 94%
    20:00 -5°C° 0 mm 3 mps 763 mmHg 93%
    21:00 -5°C° 0 mm 3 mps 763 mmHg 93%
    22:00 -5°C° 0 mm 3 mps 763 mmHg 93%
    23:00 -5°C° 0 mm 3 mps 763 mmHg 93%

    26 January, Saturday

    Time Temperature Precipitation Wind Pressure Humidity
    00:00 -5°C° 0 mm 3 mps 763 mmHg 93%
    01:00 -6°C° 0 mm 3 mps 763 mmHg 93%
    02:00 -6°C° 0 mm 3 mps 762 mmHg 92%
    03:00 -6°C° 0 mm 3 mps 762 mmHg 92%
    04:00 -6°C° 0 mm 3 mps 762 mmHg 92%
    05:00 -6°C° 0 mm 3 mps 762 mmHg 92%
    06:00 -6°C° 0 mm 3 mps 761 mmHg 92%
    07:00 -6°C° 0 mm 3 mps 761 mmHg 92%
    08:00 -5°C° 0 mm 3 mps 761 mmHg 92%
    09:00 -4°C° 0 mm 2 mps 761 mmHg 92%
    10:00 -3°C° 0 mm 2 mps 761 mmHg 92%
    11:00 -2°C° 0 mm 2 mps 761 mmHg 93%
    12:00 -1°C° 0 mm 2 mps 760 mmHg 94%
    13:00 -1°C° 0 mm 2 mps 760 mmHg 94%
    14:00 -1°C° 0 mm 2 mps 760 mmHg 94%
    15:00 -1°C° 0 mm 2 mps 759 mmHg 94%
    16:00 -1°C° 0 mm 2 mps 759 mmHg 94%
    17:00 -2°C° 0 mm 2 mps 759 mmHg 93%
    18:00 -3°C° 0 mm 2 mps 759 mmHg 93%
    19:00 -3°C° 0 mm 2 mps 759 mmHg 92%
    20:00 -3°C° 0 mm 2 mps 759 mmHg 92%
    21:00 -1°C° 0 mm 1 mps 758 mmHg 91%
    22:00 -1°C° 0 mm 1 mps 758 mmHg 91%
    23:00 -1°C° 0 mm 1 mps 758 mmHg 90%

    27 January, Sunday

    Time Temperature Precipitation Wind Pressure Humidity
    00:00 -1°C° 0 mm 1 mps 758 mmHg 90%
    01:00 -1°C° 0 mm 1 mps 758 mmHg 90%
    02:00 -2°C° 0 mm 1 mps 758 mmHg 89%
    03:00 -2°C° 0 mm 1 mps 758 mmHg 89%
    04:00 -2°C° 0 mm 1 mps 757 mmHg 89%
    05:00 -2°C° 0 mm 1 mps 757 mmHg 89%
    06:00 -2°C° 0 mm 1 mps 757 mmHg 88%
    07:00 -2°C° 0 mm 1 mps 757 mmHg 88%
    08:00 -2°C° 0 mm 1 mps 757 mmHg 88%
    09:00 -1°C° 0 mm 1 mps 757 mmHg 88%
    10:00 -1°C° 0 mm 1 mps 757 mmHg 88%
    11:00 0°C° 0 mm 1 mps 757 mmHg 87%
    12:00 0°C° 0 mm 0 mps 757 mmHg 87%
    13:00 0°C° 0 mm 0 mps 757 mmHg 87%
    14:00 0°C° 0 mm 0 mps 757 mmHg 88%
    15:00 +1°C° 0 mm 1 mps 756 mmHg 89%
    16:00 0°C° 0 mm 0 mps 757 mmHg 89%
    17:00 -1°C° 0 mm 0 mps 757 mmHg 88%
    18:00 -1°C° 0 mm 0 mps 757 mmHg 88%
    19:00 -1°C° 0 mm 0 mps 757 mmHg 88%
    20:00 0°C° 0 mm 1 mps 757 mmHg 88%
    21:00 0°C° 0 mm 1 mps 757 mmHg 88%
    22:00 0°C° 0.1 mm 1 mps 757 mmHg 88%
    23:00 0°C° 0.1 mm 1 mps 757 mmHg 89%
    Show more